Content
SEND FEEDBACK

Daily
Averages
Monthly
Summary
Ireland

CORCAIGH, IRELAND


Home > Europe > Ireland
Elevation: 531 feet     Latitude: 51 51N     Longitude: 008 28W

WEATHER
 
SELECT A DAY
Number of Records: 305,023;   Date Range: 7/1/96 - 7/9/14
 
SHARE

PRINT THIS DATA

[ ← Previous Day ]
WEATHER ALMANAC - JANUARY 31, 2013
[ Next Day → ]
[ °C ]   °F
Weather ElementAverageHighLow
Temperature43.9 °F50 °F (1:30 pm)41 °F (5:00 am)
Dewpoint39.5 °F44.6 °F (12:30 am)35.6 °F (9:00 am)
Humidity84.3 %100 % (12:30 am)71 % (1:30 pm)
Barometer29.79 in29.88 in (12:00 pm)29.62 in (12:00 am)
Wind Speed18.4 mph39.1 mph (12:00 am)
Wind Gust54.1 mph (12:00 am)
Weather ElementAverage
Visibility6.8 mi
Wind DirectionWSW (242.5 °)

Weather ElementTotal
Precipitation---
Heating Degree Days19.5 (Base 65)
Averaged from 51 records on January 31, 2013
WEATHER CONDITIONS BREAKOUT
WIND DIRECTION BREAKOUT
WEATHER BY HOUR - JANUARY 31, 2013
[ °C ]   °F
Local TimeTemperatureDewpointHumidityBarometerVisibilityWind DirectionWind SpeedGust SpeedPrecipitationEventsConditions
12:00 AM42.8 °F41.0 °F93 %29.62 in3.7 miSW (220°)39.1 mph54.1 mphRain-ThunderstormThunderstorms and Rain
12:30 AM44.6 °F44.6 °F100 %29.65 in6.2 miSW (230°)27.6 mph39.1 mphMostly Cloudy
1:00 AM46.4 °F42.8 °F87 %29.65 in6.2 miSW (230°)23.0 mph34.5 mphMostly Cloudy
1:30 AM46.4 °F41.0 °F81 %29.65 in6.2 miWSW (240°)23.0 mph36.8 mphMostly Cloudy
2:00 AM46.4 °F39.2 °F76 %29.65 in6.2 miWSW (240°)23.0 mph35.7 mphMostly Cloudy
2:30 AM44.6 °F39.2 °F81 %29.65 in6.2 miWSW (240°)24.2 mph38.0 mphMostly Cloudy
3:00 AM44.6 °F39.2 °F81 %29.65 in6.2 miSW (230°)21.9 mph33.4 mphMostly Cloudy
3:30 AM44.6 °F39.2 °F81 %29.65 in6.2 miWSW (240°)20.7 mph33.4 mphMostly Cloudy
4:00 AM44.6 °F39.2 °F81 %29.65 in6.2 miSW (230°)21.9 mphMostly Cloudy
4:30 AM44.6 °F39.2 °F81 %29.65 in6.2 miWSW (240°)25.3 mph39.1 mphMostly Cloudy
5:00 AM41.0 °F37.4 °F87 %29.68 in3.7 miWest (270°)33.4 mph48.3 mphRainLight Rain Showers
5:30 AM41.0 °F37.4 °F87 %29.71 in6.2 miWSW (240°)20.7 mph32.2 mphScattered Clouds
6:00 AM41.0 °F39.2 °F93 %29.74 in6.2 miWSW (240°)17.3 mphRainLight Rain Showers
6:00 AM41.0 °F39.0 °F88 %29.76 in12.0 miWSW (240°)17.9 mphRainLight Rain Showers
6:30 AM41.0 °F39.2 °F93 %29.71 in6.2 miWSW (250°)18.4 mphMostly Cloudy
7:00 AM42.8 °F37.4 °F81 %29.74 in6.2 miWSW (250°)24.2 mph38.0 mphScattered Clouds
7:30 AM42.8 °F37.4 °F81 %29.74 in6.2 miWest (260°)23.0 mphRainLight Rain Showers
8:00 AM42.8 °F37.4 °F81 %29.77 in6.2 miWest (260°)19.6 mphScattered Clouds
8:30 AM42.8 °F37.4 °F81 %29.80 in6.2 miWest (260°)19.6 mphMostly Cloudy
9:00 AM42.8 °F35.6 °F76 %29.80 in6.2 miWest (260°)20.7 mphMostly Cloudy
9:30 AM42.8 °F37.4 °F81 %29.80 in6.2 miWSW (250°)18.4 mphMostly Cloudy
10:00 AM42.8 °F39.2 °F87 %29.83 in6.2 miWSW (240°)15.0 mphMostly Cloudy
10:30 AM46.4 °F39.2 °F76 %29.83 in6.2 miWSW (240°)18.4 mphMostly Cloudy
11:00 AM46.4 °F41.0 °F81 %29.86 in6.2 miSW (230°)18.4 mph29.9 mphMostly Cloudy
11:30 AM46.4 °F41.0 °F81 %29.86 in6.2 miWSW (250°)19.6 mphScattered Clouds
12:00 PM46.4 °F41.0 °F81 %29.86 in6.2 miWSW (240°)20.7 mph32.2 mphScattered Clouds
12:00 PM47.0 °F42.0 °F76 %29.88 in25.0 miWSW (240°)20.1 mphRainLight Rain Showers
12:30 PM48.2 °F41.0 °F76 %29.86 in6.2 miWSW (240°)18.4 mph33.4 mphScattered Clouds
1:00 PM48.2 °F41.0 °F76 %29.86 in6.2 miWSW (250°)21.9 mph39.1 mphScattered Clouds
1:30 PM50.0 °F41.0 °F71 %29.86 in6.2 miWSW (240°)21.9 mphScattered Clouds
2:00 PM48.2 °F39.2 °F71 %29.86 in6.2 miWSW (250°)21.9 mphScattered Clouds
2:30 PM42.8 °F39.2 °F87 %29.86 in6.2 miWSW (250°)20.7 mphRainLight Rain Showers
3:00 PM44.6 °F41.0 °F87 %29.86 in6.2 miWest (260°)15.0 mphMostly Cloudy
3:30 PM46.4 °F39.2 °F76 %29.86 in6.2 miWSW (250°)17.3 mphMostly Cloudy
4:00 PM46.4 °F39.2 °F76 %29.86 in6.2 miWSW (240°)18.4 mphMostly Cloudy
4:30 PM46.4 °F39.2 °F76 %29.86 in6.2 miWSW (240°)17.3 mphMostly Cloudy
5:00 PM44.6 °F39.2 °F81 %29.86 in6.2 miWSW (240°)18.4 mph29.9 mphMostly Cloudy
5:30 PM42.8 °F39.2 °F87 %29.86 in6.2 miWSW (250°)11.5 mphMostly Cloudy
6:00 PM41.0 °F39.2 °F93 %29.86 in6.2 miSW (230°)9.2 mphMostly Cloudy
6:00 PM42.0 °F39.0 °F85 %29.88 in19.0 miSW (230°)8.9 mphPartly Cloudy
6:30 PM42.8 °F41.0 °F93 %29.86 in6.2 miWSW (240°)11.5 mphMostly Cloudy
7:00 PM42.8 °F41.0 °F93 %29.86 in6.2 miWSW (250°)13.8 mphRainLight Rain Showers
7:30 PM42.8 °F39.2 °F87 %29.86 in6.2 miWSW (240°)10.4 mphScattered Clouds
8:00 PM42.8 °F39.2 °F87 %29.83 in6.2 miSW (230°)11.5 mphScattered Clouds
8:30 PM42.8 °F39.2 °F87 %29.83 in6.2 miWSW (250°)15.0 mphScattered Clouds
9:00 PM41.0 °F39.2 °F93 %29.83 in6.2 miSW (220°)8.1 mphScattered Clouds
9:30 PM41.0 °F39.2 °F93 %29.83 in6.2 miSW (220°)8.1 mphScattered Clouds
10:00 PM41.0 °F39.2 °F93 %29.80 in6.2 miSW (220°)10.4 mphMostly Cloudy
10:30 PM41.0 °F39.2 °F93 %29.80 in6.2 miSW (220°)10.4 mphMostly Cloudy
11:00 PM41.0 °F39.2 °F93 %29.80 in6.2 miWNW (290°)12.7 mphRainLight Rain
11:30 PM41.0 °F39.2 °F93 %29.80 in6.2 miWest (260°)11.5 mphRainLight Rain
Hourly data recorded from EICK, located miles away from Corcaigh, Ireland







STORIES FROM OUR PARTNERS